#timestamp,LO_Frequency,Hit,StdDev 
1532782815.2,286047002.8,N
1532782835.0,286047001.3,N
1532782835.9,286047001.3,N
1532782855.8,286047002.4,N
1532782875.6,286047002.2,N
1532782895.4,286047001.8,N
1532782915.3,286047001.5,N
1532782935.1,286047001.8,N
1532782955.9,286047003.2,Y
1532782975.7,286046999.8,P
1532782995.5,286047002.3,N
1532783015.4,286047000.6,N
1532783035.2,286047000.7,N
1532783055.0,286046998.9,N
1532783055.9,286046998.9,N
1532783075.8,286046998.2,N
1532783095.6,286047000.7,N
1532783115.5,286047000.3,N
1532783135.3,286047000.0,N
1532783155.1,286047011.9,Y
1532783175.9,286047001.1,P
1532783195.7,286047001.2,N
1532783215.5,286047000.9,N
1532783235.4,286047000.4,N
1532783255.2,286047000.4,N
1532783275.1,286047000.6,N
1532783276.0,286047000.6,N
1532783325.8,286046998.2,E
1532783335.8,286047000.2,N
1532783355.6,286047001.5,P
1532783375.4,286047002.2,P
1532783395.3,286047001.6,N
1532783415.1,286047002.7,Y
1532783435.8,286047000.2,P
1532783455.7,286047002.2,P
1532783475.5,286047000.2,N
1532783495.4,286046999.9,N
1532783515.2,286047001.0,N
1532783535.0,286047000.3,N
1532783535.9,286047000.3,N
1532783555.8,286046999.8,N
1532783575.6,286046999.7,N
1532783595.4,286046999.9,N
1532783615.3,286047001.0,N
1532783635.1,286046998.2,N
1532783655.8,286047000.6,N
1532783675.7,286046999.7,N
1532783695.5,286047002.5,N
1532783715.4,286047002.1,N
1532783735.2,286047001.8,N
1532783755.0,286047002.7,N
1532783755.9,286047002.7,N
1532783775.8,286047000.1,N
1532783795.6,286047003.0,N
1532783815.4,286047009.1,Y
1532783835.3,286047008.4,P
1532783855.1,286047008.6,N
1532783875.9,286047010.2,N
1532783895.7,286047010.6,N
1532783915.5,286047007.8,N
1532783935.4,286047007.9,N
1532783955.2,286047008.8,N
1532783975.0,286047006.5,N
1532783975.9,286047006.5,N
1532783995.8,286047006.7,N
1532784015.6,286047004.5,N
1532784035.5,286047005.8,N
1532784055.3,286047003.1,N
1532784075.1,286047003.8,N
1532784095.9,286047003.9,N
1532784115.7,286047002.2,N
1532784135.5,286047002.7,N
1532784155.4,286047002.4,N
1532784175.2,286047001.6,N
1532784195.1,286047002.3,N
1532784196.0,286047002.3,N
1532784215.2,286047001.3,N
1532784235.0,286047002.1,N
1532784235.9,286047002.1,N
1532784255.7,286047002.7,N
1532784275.6,286047002.0,N
1532784295.4,286047002.4,N
1532784315.3,286047002.8,N
1532784335.1,286047002.7,N
1532784336.0,286047002.7,N
1532784355.8,286047000.5,N
1532784375.7,286047000.2,N
1532784395.5,286046999.8,N
1532784415.4,286047000.3,N
1532784435.2,286047000.0,N
1532784455.0,286047005.1,N
1532784455.9,286047005.1,N
1532784475.8,286047004.8,N
1532784495.6,286047003.5,N
1532784515.4,286047003.6,N
1532784535.3,286047003.9,N
1532784555.1,286047003.4,N
1532784575.9,286047002.9,N
1532784595.7,286047003.2,N
1532784615.5,286047003.7,N
1532784635.4,286047002.9,N
1532784655.2,286047003.6,N
1532784675.0,286047004.2,N
1532784675.9,286047004.2,N
1532784695.8,286047003.8,N
1532784715.6,286047001.4,N
1532784735.5,286047001.8,N
1532784755.3,286047003.8,N
1532784775.1,286047004.3,N
1532784795.9,286047002.2,N
1532784815.7,286047001.6,N
1532784835.5,286047003.3,N
1532784855.4,286047003.4,N
1532784875.2,286047003.5,N
1532784895.1,286047003.5,N
1532784896.0,286047003.5,N
1532784915.8,286047003.5,N
1532784935.6,286047004.1,Y
1532784955.5,286046999.8,P
1532784975.3,286047002.5,N
1532784995.2,286047002.7,N
1532785015.9,286047002.5,N
1532785035.7,286047002.0,N
1532785055.6,286047001.5,N
1532785075.4,286047001.6,N
1532785095.2,286047001.8,N
1532785115.1,286047002.5,N
1532785116.0,286047002.5,N
1532785135.8,286047002.6,Y
1532785155.7,286047001.1,P
1532785175.5,286046998.3,P
1532785195.3,286046998.6,N
1532785215.2,286046999.4,N
1532785235.9,286046999.6,N
1532785255.7,286046996.9,N
1532785275.6,286046997.4,N
1532785295.4,286046996.8,N
1532785315.2,286046997.3,N
1532785335.1,286046997.4,N
1532785336.0,286046997.4,N
1532785355.8,286046996.6,N
1532785375.7,286046996.7,N
1532785395.5,286046997.2,N
1532785415.3,286046997.1,N
1532785435.2,286046997.1,N
1532785455.0,286046997.2,N
1532785455.9,286046997.2,N
1532785475.7,286046999.2,N
1532785495.6,286046999.1,N
1532785515.4,286046999.0,N
1532785535.3,286046997.0,N
1532785555.1,286046996.9,N
1532785575.8,286046996.7,N
1532785595.7,286046996.6,N
1532785615.5,286046997.4,N
1532785635.4,286046994.9,Y
1532785655.2,286046998.3,P
1532785675.0,286046998.2,P
1532785675.9,286046998.2,P
1532785695.8,286046998.9,Y
1532785715.6,286046999.8,P
1532785735.5,286047000.6,N
1532785755.3,286047000.0,N
1532785775.1,286047000.5,N
1532785795.9,286047002.8,Y
1532785815.7,286047000.6,P
1532785835.5,286047001.0,N
1532785855.4,286047000.4,N
1532785875.2,286047000.0,N
1532785895.1,286046999.7,N
1532785896.0,286046999.7,N
1532785915.8,286047000.0,N
1532785935.6,286047000.9,N
1532785955.5,286047000.5,N
1532785975.3,286047001.0,N
1532785995.1,286047000.9,N
1532786015.9,286047000.9,N
1532786035.7,286046998.1,Y
1532786055.6,286046998.2,P
1532786075.4,286047001.1,N
1532786095.2,286046998.6,N
1532786115.1,286046998.7,N
1532786116.0,286046998.7,N
1532786135.8,286046998.6,N
1532786155.6,286046998.8,N
1532786175.5,286046998.3,N
1532786195.3,286046998.5,N
1532786215.2,286046998.3,N
1532786235.9,286046998.4,N
1532786255.7,286046998.1,N
1532786275.6,286046998.1,N
1532786295.4,286047000.8,N
1532786315.3,286046998.5,N
1532786335.1,286047001.1,N
1532786336.0,286047001.1,N
1532786355.8,286047000.5,N
1532786375.7,286047001.1,N
1532786395.5,286047000.5,N
